[[{"header":{"parameterUnit":"m.s-1","parameterCategory":1,"la1":30.2991,"la2":30.254,"lo1":-89.0895,"lo2":-89.0444,"dy":0.0017,"dx":0.0017,"nx":28,"ny":28,"refTime":"2025-03-28T03:00:00:Z","depth":0,"parameterNumber":2,"parameterNumberName":"U-component_of_WINDS"},"data":[0,0,0,0,0,0,0,0,0,0,0,0,0,0,0,0,0,0,0,0,0,0,0,0,0,0,0,0,0,0,0,0,0,0,0,0,0,0,0,0,0,0,0,0,0,0,0,0,0,0,0,0,0,0,0,0,0,0,-7.3208,-7.321,0,-7.3345,-7.3346,-7.3348,-7.3325,-7.3323,-7.332,-7.3318,-7.3455,-7.346,-7.3466,0,0,0,0,0,0,0,0,0,0,0,0,0,-7.2926,-7.2932,-7.3208,-7.321,-7.3211,-7.3344,-7.3346,-7.3348,-7.3325,-7.3323,-7.332,-7.3317,-7.3453,-7.346,-7.3467,0,0,0,0,0,0,0,0,0,0,0,0,0,-7.3054,-7.2933,-7.3208,-7.3216,-7.3218,-7.3344,-7.3346,-7.3349,-7.3326,-7.3322,-7.3319,-7.3316,-7.3451,-7.3459,-7.3468,-7.3593,0,0,-7.3494,-7.3498,0,0,0,0,0,0,0,0,-7.3047,-7.3065,-7.3213,-7.3216,-7.3218,-7.3314,-7.3297,-7.343,-7.3327,-7.3285,-7.3318,-7.3314,-7.3411,-7.3422,-7.3456,-7.3599,-7.3605,-7.3495,-7.3501,-7.3504,-7.3507,0,0,0,0,0,0,0,-7.3038,-7.3059,-7.3262,-7.3215,-7.3219,-7.3213,-7.3227,-7.3322,-7.3366,-7.3288,-7.3287,-7.3304,-7.3411,-7.3447,-7.3459,-7.3607,-7.3495,-7.3503,-7.3508,-7.3512,-7.386,-7.3864,0,0,0,0,0,0,-7.3027,-7.3051,-7.3258,-7.3266,-7.3122,-7.3221,-7.3237,-7.3287,-7.3365,-7.3373,-7.3307,-7.3302,-7.3434,-7.3449,-7.3464,-7.3614,-7.3504,-7.3512,-7.3518,-7.3856,-7.3861,-7.3866,0,0,0,0,0,0,-7.3021,-7.3046,-7.3252,-7.3159,-7.3184,-7.3229,-7.3286,-7.3292,-7.3327,-7.3379,-7.3386,-7.3335,-7.3432,-7.3451,-7.3561,-7.3619,-7.3516,-7.3524,-7.3852,-7.3858,-7.3863,-7.3917,0,0,0,0,0,0,-7.3013,-7.3044,-7.3092,-7.316,-7.3189,-7.3348,-7.329,-7.3297,-7.3343,-7.3338,-7.3408,-7.3416,-7.3431,-7.3548,-7.357,-7.3629,-7.3531,-7.3846,-7.3854,-7.3861,-7.391,-7.3924,-7.3936,0,0,0,0,0,-7.3003,-7.31,-7.3094,-7.3119,-7.325,-7.3351,-7.3368,-7.3384,-7.3348,-7.3396,-7.3429,-7.3413,-7.361,-7.356,-7.3584,-7.3646,-7.3843,-7.3852,-7.3861,-7.3904,-7.3921,-7.3936,0,0,0,0,0,0,-7.3036,-7.3109,-7.3103,-7.3225,-7.3283,-7.3347,-7.3408,-7.3401,-7.3469,-7.3461,-7.3478,-7.3494,-7.3605,-7.3637,-7.358,-7.3772,-7.3721,-7.3735,-7.3746,-7.3762,-7.3775,-7.3763,-7.3539,0,0,0,0,0,-7.3058,-7.3134,-7.3194,-7.3296,-7.3325,-7.3362,-7.3407,-7.3415,-7.3474,-7.3497,-7.3538,-7.3596,-7.367,-7.3719,-7.379,-7.3916,-7.393,-7.3972,-7.3984,-7.3995,-7.4006,-7.4074,-7.4093,-7.3895,-7.3895,-7.3895,0,0,-7.3103,-7.3152,-7.3199,-7.3304,-7.3349,-7.3427,-7.3382,-7.3466,-7.3524,-7.351,-7.3615,-7.3649,-7.3714,-7.3832,-7.3886,-7.3862,-7.4064,-7.4006,-7.4014,-7.4019,-7.4086,-7.4104,-7.4121,-7.3901,-7.39,-7.3899,0,0,-7.3224,-7.327,-7.336,-7.3407,-7.3476,-7.3501,-7.3523,-7.3589,-7.3611,-7.3718,-7.3709,-7.3779,-7.3907,-7.3954,-7.3994,-7.4138,-7.4125,-7.4161,-7.4226,-7.4293,-7.4309,-7.4322,-7.4372,-7.4389,-7.4172,-7.4172,-7.4173,0,-7.327,-7.3387,-7.3406,-7.3492,-7.3539,-7.3532,-7.3623,-7.3667,-7.3756,-7.3788,-7.3761,-7.3923,-7.3966,-7.4095,-7.4131,-7.4165,-7.4189,-7.415,-7.4305,-7.4319,-7.4332,-7.4379,-7.4398,-7.4176,-7.4176,-7.4175,-7.4175,0,-7.3441,-7.3523,-7.3587,-7.3675,-7.3729,-7.3817,-7.3849,-7.3901,-7.3906,-7.3934,-7.4043,-7.4096,-7.4178,-7.4211,-7.4215,-7.4341,-7.4324,-7.4301,-7.425,-7.4355,-7.4399,-7.4417,-7.4181,-7.418,-7.4179,-7.4178,0,0,-7.3581,-7.3681,-7.3704,-7.3744,-7.3822,-7.3885,-7.3974,-7.4056,-7.41,-7.4163,-7.4237,-7.4348,-7.4328,-7.4374,-7.4385,-7.4444,-7.4552,-7.4414,-7.4415,-7.4435,-7.4693,-7.4707,-7.4728,-7.4547,-7.455,-7.4553,-7.4687,0,-7.3708,-7.3864,-7.3885,-7.4023,-7.4099,-7.4096,-7.4173,-7.4229,-7.4258,-7.4327,-7.4359,-7.4436,-7.4405,-7.4433,-7.4492,-7.4527,-7.4604,-7.4518,-7.4613,-7.4616,-7.4593,-7.4751,-7.4766,-7.489,-7.4704,-7.4707,-7.471,0,-7.3875,-7.3944,-7.409,-7.4159,-7.4191,-7.426,-7.4337,-7.4404,-7.4468,-7.4485,-7.4539,-7.4543,-7.4634,-7.4583,-7.4708,-7.465,-7.4691,-7.4715,-7.472,-7.4726,-7.4666,-7.4759,-7.493,-7.4947,-7.4738,-7.4735,-7.4733,0,-7.396,-7.409,-7.4194,-7.4229,-7.4312,-7.4361,-7.4398,-7.4459,-7.4507,-7.4576,-7.4607,-7.4685,-7.4727,-7.4787,-7.4812,-7.4773,-7.4936,-7.4887,-7.4951,-7.4951,-7.4982,-7.4979,-7.5158,-7.5015,-7.5014,-7.5014,-7.5014,0,-7.4097,-7.4186,-7.4234,-7.4297,-7.4397,-7.4422,-7.452,-7.4555,-7.461,-7.468,-7.4683,-7.4749,-7.4779,-7.485,-7.4871,-7.4971,-7.4991,-7.5006,-7.501,-7.5004,-7.5002,-7.5028,-7.5019,-7.5019,-7.5018,-7.5017,-7.5016,0,-7.4207,-7.4243,-7.4356,-7.4427,-7.4447,-7.4517,-7.4578,-7.464,-7.467,-7.4759,-7.4781,-7.4829,-7.4912,-7.4944,-7.5046,-7.506,-7.5175,-7.5174,-7.5153,-7.5154,-7.5216,-7.5208,-7.5415,-7.5443,-7.5284,-7.5285,-7.5287,0,-7.429,-7.4359,-7.4438,-7.4486,-7.4525,-7.4602,-7.4652,-7.468,-7.4732,-7.4812,-7.4864,-7.4948,-7.5016,-7.515,-7.5193,-7.5271,-7.527,-7.5337,-7.5281,-7.5273,-7.5268,-7.5262,-7.5268,-7.5346,-7.5347,-7.5349,-7.535,0,-7.4434,-7.4449,-7.4521,-7.4601,-7.4661,-7.4725,-7.4786,-7.4825,-7.4863,-7.4922,-7.5008,-7.5061,-7.5166,-7.5249,-7.533,-7.5368,-7.5365,-7.5368,-7.5387,-7.5379,-7.5364,-7.5371,-7.5178,-7.5362,-7.5361,-7.536,-7.5359,-7.5359,-7.4531,-7.4592,-7.4658,-7.4739,-7.4789,-7.4847,-7.4909,-7.4948,-7.5021,-7.5109,-7.5122,-7.5214,-7.5278,-7.5387,-7.5429,-7.5501,-7.5483,-7.5511,-7.5517,-7.5522,-7.5526,-7.5356,-7.5516,-7.5516,-7.5516,-7.5516,-7.5515,0,-7.4672,-7.4716,-7.479,-7.4877,-7.4941,-7.4936,-7.5005,-7.5059,-7.514,-7.5201,-7.5269,-7.5368,-7.5449,-7.55,-7.5582,-7.563,-7.5631,-7.565,-7.5645,-7.5654,-7.5538,-7.5513,-7.5648,-7.5648,-7.5648,-7.5648,-7.5648,-7.5648,-7.4753,-7.4855,-7.4879,-7.5007,-7.5049,-7.514,-7.518,-7.5234,-7.5282,-7.5394,-7.5461,-7.5495,-7.5552,-7.5639,-7.5713,-7.5726,-7.5754,-7.5775,-7.5786,-7.5676,-7.5662,-7.5649,-7.5625,-7.5782,-7.5782,-7.5895,-7.5897,-7.5897]},{"header":{"parameterUnit":"m.s-1","parameterCategory":1,"la1":30.2991,"la2":30.254,"lo1":-89.0895,"lo2":-89.0444,"dy":0.0017,"dx":0.0017,"nx":28,"ny":28,"refTime":"2025-03-28T03:00:00:Z","depth":0,"parameterNumber":3,"parameterNumberName":"V-component_of_WINDS"},"data":[0,0,0,0,0,0,0,0,0,0,0,0,0,0,0,0,0,0,0,0,0,0,0,0,0,0,0,0,0,0,0,0,0,0,0,0,0,0,0,0,0,0,0,0,0,0,0,0,0,0,0,0,0,0,0,0,0,0,4.6833,4.6834,0,4.6912,4.6912,4.6913,4.6904,4.6903,4.6902,4.6901,4.6977,4.698,4.6984,0,0,0,0,0,0,0,0,0,0,0,0,0,4.6675,4.6678,4.6833,4.6834,4.6835,4.6911,4.6913,4.6914,4.6905,4.6903,4.6902,4.69,4.6976,4.698,4.6984,0,0,0,0,0,0,0,0,0,0,0,0,0,4.6747,4.6679,4.6833,4.684,4.6842,4.6911,4.6913,4.6914,4.6905,4.6903,4.6901,4.69,4.6975,4.698,4.6984,4.7051,0,0,4.6999,4.7001,0,0,0,0,0,0,0,0,4.6743,4.6753,4.6838,4.684,4.6842,4.6896,4.6885,4.696,4.6905,4.6881,4.6901,4.6899,4.6952,4.6958,4.6977,4.7055,4.7058,4.6999,4.7002,4.7004,4.7006,0,0,0,0,0,0,0,4.6738,4.675,4.6864,4.6839,4.6841,4.6839,4.6847,4.6899,4.6926,4.6883,4.6882,4.6892,4.6952,4.6972,4.6979,4.7059,4.6999,4.7004,4.7006,4.7008,4.7198,4.72,0,0,0,0,0,0,4.6732,4.6746,4.6862,4.6867,4.6787,4.6843,4.6852,4.6881,4.6925,4.693,4.6893,4.6891,4.6965,4.6973,4.6981,4.7064,4.7004,4.7009,4.7012,4.7196,4.7199,4.7201,0,0,0,0,0,0,4.6728,4.6742,4.6859,4.6806,4.6821,4.6848,4.688,4.6883,4.6903,4.6933,4.6938,4.6909,4.6964,4.6975,4.7035,4.7067,4.7011,4.7015,4.7193,4.7197,4.72,4.7229,0,0,0,0,0,0,4.6724,4.6741,4.6767,4.6807,4.6824,4.6911,4.6882,4.6886,4.6912,4.691,4.6949,4.6954,4.6963,4.7028,4.7039,4.7072,4.7019,4.7191,4.7195,4.7199,4.7225,4.7233,4.7239,0,0,0,0,0,4.6718,4.6771,4.6768,4.6782,4.6857,4.6913,4.6922,4.6933,4.6915,4.6941,4.696,4.6952,4.7061,4.7034,4.7047,4.7082,4.7189,4.7194,4.7198,4.7222,4.7231,4.7239,0,0,0,0,0,0,4.6732,4.6776,4.6774,4.6841,4.6873,4.6911,4.6944,4.6942,4.698,4.6976,4.6987,4.6996,4.7057,4.7075,4.7044,4.715,4.7122,4.713,4.7136,4.7145,4.7152,4.7146,4.7023,0,0,0,0,0,4.6743,4.6786,4.6822,4.6877,4.6894,4.6917,4.6942,4.6948,4.6981,4.6995,4.7018,4.7051,4.7093,4.712,4.7159,4.7228,4.7237,4.7259,4.7266,4.7271,4.7278,4.7318,4.7328,4.7217,4.7217,4.7217,0,0,4.6765,4.6795,4.6821,4.6881,4.6907,4.6951,4.6928,4.6975,4.7008,4.7001,4.7061,4.7079,4.7116,4.7182,4.7212,4.7198,4.7311,4.7277,4.7282,4.7285,4.7324,4.7334,4.7343,4.722,4.722,4.7219,0,0,4.683,4.6856,4.6906,4.6934,4.6974,4.699,4.7002,4.7041,4.7054,4.7114,4.711,4.7149,4.722,4.7248,4.7271,4.7349,4.7343,4.7361,4.7398,4.7436,4.7445,4.7453,4.7482,4.7492,4.7368,4.7368,4.7368,0,4.6852,4.6919,4.6932,4.6981,4.7008,4.7006,4.7057,4.7083,4.7134,4.7152,4.7137,4.7229,4.7253,4.7326,4.7345,4.7364,4.7378,4.7357,4.7443,4.7451,4.7458,4.7486,4.7497,4.737,4.7369,4.7369,4.7369,0,4.6946,4.6993,4.7029,4.7081,4.7112,4.7161,4.7181,4.7211,4.7215,4.7232,4.7294,4.7324,4.7371,4.7388,4.7391,4.7462,4.7453,4.7441,4.7413,4.7471,4.7497,4.7508,4.7373,4.7372,4.7371,4.7371,0,0,4.7019,4.708,4.7093,4.7117,4.7163,4.72,4.725,4.7298,4.7324,4.7359,4.7402,4.7464,4.7453,4.748,4.7486,4.752,4.7582,4.7503,4.7504,4.7518,4.7664,4.7673,4.7686,4.7579,4.7581,4.7583,4.7661,0,4.7089,4.7179,4.7193,4.7272,4.7317,4.7317,4.7361,4.7394,4.7411,4.7451,4.747,4.7514,4.7496,4.7513,4.7546,4.7567,4.7611,4.7562,4.7619,4.7621,4.761,4.7699,4.7709,4.7782,4.7671,4.7673,4.7674,0,4.7182,4.7223,4.7307,4.735,4.7369,4.7408,4.7455,4.7492,4.753,4.7541,4.7572,4.7575,4.7627,4.7598,4.7671,4.7637,4.7661,4.7675,4.7678,4.7684,4.7651,4.7708,4.7805,4.7816,4.769,4.7689,4.7688,0,4.7229,4.7305,4.7366,4.7386,4.7437,4.7465,4.7487,4.7524,4.7552,4.7592,4.7611,4.7656,4.7681,4.7716,4.7731,4.7708,4.7804,4.7775,4.7814,4.7814,4.7834,4.7833,4.7937,4.7849,4.7848,4.7848,4.7848,0,4.7306,4.7357,4.7388,4.7425,4.7484,4.75,4.7557,4.7578,4.7611,4.7653,4.7655,4.7694,4.7712,4.7753,4.7765,4.7825,4.7835,4.7846,4.7848,4.7846,4.7845,4.7862,4.7858,4.7851,4.785,4.785,4.7849,0,4.7368,4.739,4.7457,4.7501,4.7513,4.7554,4.7591,4.7628,4.7646,4.7699,4.7712,4.774,4.779,4.7809,4.7869,4.7877,4.7946,4.7944,4.7934,4.7935,4.7973,4.797,4.8092,4.811,4.8009,4.801,4.8011,0,4.7415,4.7456,4.7505,4.7534,4.7558,4.7604,4.7634,4.7651,4.7683,4.7731,4.7762,4.7811,4.7852,4.7931,4.7957,4.8003,4.8003,4.8043,4.801,4.8007,4.8005,4.8003,4.8008,4.8049,4.805,4.8051,4.8051,0,4.7499,4.7509,4.7552,4.7601,4.7638,4.7676,4.7714,4.7737,4.7761,4.7796,4.7847,4.7879,4.7942,4.7992,4.804,4.8062,4.8061,4.8062,4.8074,4.8072,4.8065,4.807,4.7951,4.8059,4.8058,4.8057,4.8057,4.8057,4.7556,4.7593,4.7634,4.7684,4.7714,4.775,4.7788,4.7812,4.7855,4.7909,4.7916,4.7972,4.8011,4.8076,4.81,4.8144,4.8133,4.815,4.8154,4.8158,4.8162,4.8058,4.8153,4.8152,4.8152,4.8152,4.8152,0,4.764,4.7668,4.7713,4.7767,4.7807,4.7804,4.7846,4.7879,4.7929,4.7965,4.8007,4.8067,4.8116,4.8146,4.8195,4.8225,4.8226,4.8237,4.8235,4.8241,4.8168,4.8153,4.8236,4.8236,4.8236,4.8236,4.8236,4.8236,4.7689,4.7752,4.7767,4.7846,4.7872,4.7929,4.7953,4.7987,4.8016,4.8084,4.8126,4.8146,4.8181,4.8233,4.8278,4.8285,4.8304,4.8317,4.8323,4.8255,4.8246,4.8238,4.8224,4.832,4.832,4.8393,4.8394,4.8394]}]]